Regional Weather Roundup
Issued by NWS

Home | Current Version | Previous Version | Graphics & Text | Print | Product List | Glossary On
Versions: 1 2 3 4 5 6 7 8 9 10 11 12 13 14 15 16 17 18 19 20 21 22 23 24 25 26 27 28 29 30 31 32 33 34 35 36 37 38 39 40 41 42 43 44 45 46 47 48 49 50
000
ASUS43 KBIS 220120
RWRND

NORTH DAKOTA REGIONAL WEATHER ROUNDUP
NATIONAL WEATHER SERVICE BISMARCK ND
800 PM CDT TUE OCT 21 2014

NOTE: "FAIR" INDICATES FEW OR NO CLOUDS BELOW 12,000 FEET WITH NO
SIGNIFICANT WEATHER AND/OR OBSTRUCTIONS TO VISIBILITY.


NDZ001>003-009>011-017-220200-
NORTHWEST NORTH DAKOTA

CITY           SKY/WX    TMP DP  RH WIND       PRES   REMARKS
WILLISTON      CLEAR     53  42  66 N3        29.57S HAZE
MINOT          CLEAR     60  44  55 E6        29.60F
MINOT AFB      CLEAR     57  47  67 E7        29.59F
$$

NDZ018>021-031>035-040>046-220200-
SOUTHWEST NORTH DAKOTA

CITY           SKY/WX    TMP DP  RH WIND       PRES   REMARKS
BISMARCK       CLEAR     72  44  36 SE18      29.67R
DICKINSON      CLEAR     61  44  53 S10       29.61R
GARRISON         N/A     66  48  52 SE6       29.62S
HETTINGER ARPT CLEAR     65  43  44 SE9       29.66R
$$

NDZ004>008-012>016-024-026-027-054-220200-
NORTHEAST NORTH DAKOTA

CITY           SKY/WX    TMP DP  RH WIND       PRES   REMARKS
GRAND FORKS    CLEAR     58  41  53 SE25G32   29.85R
GRND FRKS AFB  CLEAR     58  43  57 SE21G28   29.84R
DEVILS LAKE    CLEAR     61  43  51 S24G30    29.73S
$$

NDZ022-023-025-028>030-036>039-047>053-220200-
SOUTHEAST NORTH DAKOTA

CITY           SKY/WX    TMP DP  RH WIND       PRES   REMARKS
FARGO          CLEAR     59  41  51 SE24G38   29.90S
JAMESTOWN      CLEAR     63  44  50 SE20      29.78R
$$




USA.gov is the U.S. government's official web portal to all federal, state and local government web resources and services.